"Pseudo-MPEC" for P11Crny

Created 2022 Dec 11 16:22:14 UT using Find_Orb

Click here for an explanation of pseudo-MPECs

 
 Astrometry: 
     P11Crny* C2022 12 02H4efuT58X+Astrometry_Z67_vYd!ldwq*\bw102gPxb*gTbs9v/F51
     P11Crny  C2022 12 02+[_redacted;dxJ?D4osSh[PyFfvo)Z\]clickBUQs?\TX,(@*q6F51
     P11Crny  C2022 12 02TjiBhereKtAq6aG+D'B(Jw3wpofor+OIl1explanationiv(Z*r#F51

Station data:
(F51) Pan-STARRS 1, Haleakala  (N20.707234 W156.255910)  US/Hawaii.
   Observers J. Bulger, T. Lowe, A. Schultz, M. Willman. Measurers K.
   Chambers, S. Chastel, T. de Boer, L. Denneau, J. Fairlamb, H. Flewelling,
   M. Huber, C.-C. Lin, E. Magnier, Y. Ramanjooloo, R. Wainscoat, R. Weryk.
   1.8-m Ritchey-Chrétien + CCD.

Orbital elements:  P11Crny
   Perihelion 2022 Dec 25.81389 +/- 26.4 TT = 19:32:00 (JD 2459939.31389)
Epoch 2022 Dec  3.0 TT = JDT 2459916.5   Earth MOID: 0.2348   Ma: 0.0407
M 354.56875573 +/- 45               (J2000 ecliptic)             AutoNEOCP
n   0.23806743 +/- 0.471            Peri.  147.08941 +/- 130
a   2.57831546 +/- 3.4              Node   324.86236 +/- 37
e   0.5277315 +/- 0.243             Incl.    1.65614 +/- 60
P   4.14                   H 21.18  G  0.15   U 12.2  SR
q 1.21765711 +/- 0.42    Q 3.93897381 +/- 19
From 3 observations 2022 Dec. 2 (63.0 min); mean residual 0".12
Residuals in arcseconds: 
221202 F51  .12-  .07+    221202 F51  .18+  .11-    221202 F51  .12-  .05+    

Ephemerides (geocentric):
Date (UTC) HH   RA             Dec           delta  r     elong  mag " sig PA
---- --------  ------------   ------------  ------ ------ -----  --- --------
2022 12 11 16  10 02 17.463   +15 27 40.19  .45251 1.2281 112.0 21.8  68d  11
2022 12 11 17  10 02 26.224   +15 26 48.22  .45239 1.2281 112.0 21.8  68d  11
2022 12 11 18  10 02 34.983   +15 25 56.24  .45226 1.2280 112.0 21.8  68d  11
2022 12 11 19  10 02 43.737   +15 25 04.24  .45214 1.2279 112.0 21.8  68d  11
2022 12 11 20  10 02 52.488   +15 24 12.23  .45202 1.2279 112.0 21.8  68d  11
2022 12 11 21  10 03 01.236   +15 23 20.21  .45190 1.2278 112.0 21.8  68d  11
2022 12 11 22  10 03 09.980   +15 22 28.17  .45178 1.2278 112.0 21.8  68d  11
2022 12 11 23  10 03 18.720   +15 21 36.11  .45165 1.2277 112.0 21.8  68d  11
2022 12 12 00  10 03 27.457   +15 20 44.05  .45153 1.2276 112.0 21.7  68d  11
2022 12 12 01  10 03 36.190   +15 19 51.96  .45141 1.2276 112.0 21.7  68d  11
2022 12 12 02  10 03 44.920   +15 18 59.87  .45129 1.2275 112.1 21.7  68d  11
2022 12 12 03  10 03 53.646   +15 18 07.76  .45117 1.2275 112.1 21.7  68d  11
2022 12 12 04  10 04 02.368   +15 17 15.64  .45105 1.2274 112.1 21.7  68d  11
2022 12 12 05  10 04 11.087   +15 16 23.50  .45093 1.2273 112.1 21.7  68d  11
2022 12 12 06  10 04 19.802   +15 15 31.35  .45081 1.2273 112.1 21.7  68d  11
2022 12 12 07  10 04 28.514   +15 14 39.19  .45069 1.2272 112.1 21.7  68d  11
2022 12 12 08  10 04 37.222   +15 13 47.01  .45057 1.2272 112.1 21.7  68d  11
2022 12 12 09  10 04 45.926   +15 12 54.82  .45045 1.2271 112.1 21.7  68d  11
2022 12 12 10  10 04 54.627   +15 12 02.62  .45033 1.2271 112.1 21.7  68d  11
2022 12 12 11  10 05 03.324   +15 11 10.40  .45021 1.2270 112.1 21.7  69d  11
2022 12 12 12  10 05 12.018   +15 10 18.17  .45009 1.2269 112.1 21.7  69d  11
2022 12 12 13  10 05 20.707   +15 09 25.93  .44997 1.2269 112.1 21.7  69d  11
2022 12 12 14  10 05 29.393   +15 08 33.67  .44985 1.2268 112.1 21.7  69d  11
2022 12 12 15  10 05 38.076   +15 07 41.40  .44973 1.2268 112.1 21.7  69d  11
2022 12 12 16  10 05 46.754   +15 06 49.12  .44961 1.2267 112.1 21.7  69d  11
2022 12 12 17  10 05 55.430   +15 05 56.83  .44950 1.2267 112.1 21.7  69d  11
2022 12 12 18  10 06 04.101   +15 05 04.52  .44938 1.2266 112.1 21.7  69d  11
2022 12 12 19  10 06 12.769   +15 04 12.20  .44926 1.2265 112.1 21.7  69d  11
2022 12 12 20  10 06 21.433   +15 03 19.87  .44914 1.2265 112.1 21.7  69d  11
2022 12 12 21  10 06 30.093   +15 02 27.53  .44902 1.2264 112.1 21.7  69d  11
2022 12 12 22  10 06 38.749   +15 01 35.17  .44891 1.2264 112.1 21.7  69d  11
2022 12 12 23  10 06 47.402   +15 00 42.80  .44879 1.2263 112.1 21.7  69d  11
2022 12 13 00  10 06 56.051   +14 59 50.42  .44867 1.2263 112.1 21.7  69d  11
2022 12 13 01  10 07 04.697   +14 58 58.03  .44855 1.2262 112.2 21.7  69d  11
2022 12 13 02  10 07 13.338   +14 58 05.62  .44844 1.2261 112.2 21.7  69d  11
2022 12 13 03  10 07 21.976   +14 57 13.21  .44832 1.2261 112.2 21.7  69d  11
2022 12 13 04  10 07 30.610   +14 56 20.78  .44820 1.2260 112.2 21.7  69d  11
2022 12 13 05  10 07 39.240   +14 55 28.34  .44809 1.2260 112.2 21.7  69d  11
2022 12 13 06  10 07 47.867   +14 54 35.89  .44797 1.2259 112.2 21.7  69d  11
2022 12 13 07  10 07 56.490   +14 53 43.42  .44785 1.2259 112.2 21.7  69d  11
2022 12 13 08  10 08 05.109   +14 52 50.95  .44774 1.2258 112.2 21.7  69d  11
2022 12 13 09  10 08 13.724   +14 51 58.46  .44762 1.2258 112.2 21.7  69d  11
2022 12 13 10  10 08 22.336   +14 51 05.97  .44751 1.2257 112.2 21.7  69d  11
2022 12 13 11  10 08 30.943   +14 50 13.46  .44739 1.2257 112.2 21.7  69d  11
2022 12 13 12  10 08 39.547   +14 49 20.94  .44728 1.2256 112.2 21.7  69d  11
2022 12 13 13  10 08 48.147   +14 48 28.41  .44716 1.2255 112.2 21.7  69d  11
2022 12 13 14  10 08 56.744   +14 47 35.87  .44705 1.2255 112.2 21.7  69d  11
2022 12 13 15  10 09 05.336   +14 46 43.31  .44693 1.2254 112.2 21.7  69d  11